Location: Ash Swamp
(41.5170°N, 74.6157°W)
Time: 02:45:01
(UTC+00:00)

Meteor 1-25 Rocket - Pass Details

Date: 14 July 2020
Orbit: 837 x 890 km, 81.2° (Epoch: 14 August)

Event Time Altitude Azimuth Distance (km) Brightness Sun altitude
Exits shadow 05:54:36 73° 186° (S) 884 4.0 -25.8°
Maximum altitude 05:55:10 89° 109° (ESE) 852 4.1 -25.8°
Drops below altitude 10° 06:00:46 10° 10° (N) 2,466 7.7 -25.5°
Sets 06:03:11 0° 10° (N) 3,401 8.7 -25.4°
